Location: Sevilla
(37.3933°N, 5.9839°W)
Time: 05:32:24
(UTC+02:00)

Transit 2A - Pass Details

Date: 28 June 2024
Orbit: 591 x 960 km, 66.7° (Epoch: 15 July)

Event Time Altitude Azimuth Distance (km) Brightness Sun altitude
Rises 00:48:26 0° 336° (NNW) 3,569 10.9 -25.0°
Reaches altitude 10° 00:51:00 10° 340° (NNW) 2,654 9.8 -25.2°
Maximum altitude 00:57:10 57° 59° (ENE) 1,124 6.8 -25.7°
Enters shadow 00:58:31 47° 102° (ESE) 1,245 6.8 -25.8°
Drops below altitude 10° 01:03:22 10° 137° (SE) 2,674 - -26.2°
Sets 01:05:57 0° 141° (SE) 3,597 - -26.4°
